Newark Heath, OH

2:08 AM EDT on April 29, 2017 (GMT -0400)
Newark Heath

Weather History for KVTA - December, 2013

Change the Weather History Date:

Sunday, December 8, 2013

  Actual Average Record
Temperature  
Mean Temperature 23 °F -  
Max Temperature 30 °F 43 °F 68 °F (1966)
Min Temperature 16 °F 29 °F 5 °F (1977)
Degree Days  
Heating Degree Days 42    
Moisture  
Dew Point 21 °F    
Average Humidity 83    
Maximum Humidity 100    
Minimum Humidity 68    
Precipitation  
Precipitation 0.01 in - - ()
Sea Level Pressure  
Sea Level Pressure 30.24 in    
Wind  
Wind Speed 6 mph (ENE)    
Max Wind Speed 13 mph    
Max Gust Speed 17 mph    
Visibility 5 miles    
Events Snow    
Averages and records for this station are not official NWS values.
T = Trace of Precipitation, MM = Missing Value Source: NWS Daily Summary

Daily Weather History Graph

Daily Weather History Graph

Search for Another Location

Airport or City:

Trip Planner

Search our weather history database for the weather conditions in past years. The results will help you decide how hot, cold, wet, or windy it might be!

Date:

Astronomy

Dec. 08, 2013 Rise Set
Actual Time 7:39 AM EST 5:04 PM EST
Civil Twilight 7:08 AM EST 5:34 PM EST
Nautical Twilight 6:35 AM EST 6:08 PM EST
Astronomical Twilight 6:02 AM EST 6:41 PM EST
Moon 11:59 AM EST (12/8) 11:52 PM EST (12/8)
Length of Visible Light 10h 25m
Length of Day
9h 25m
Waxing Crescent, 40% of the Moon is Illuminated
Dec 8
Waxing Crescent
Dec 9
First Quarter
Dec 17
Full
Dec 25
Last Quarter
Jan 1
New

Hourly Weather History & Observations

Time (EST) Temp. Windchill Dew Point Humidity Pressure Visibility Wind Dir Wind Speed Gust Speed Precip Events Conditions
12:54 AM 16.0 °F 10.4 °F 10.9 °F 81% 30.57 in 9.0 mi NNE 3.5 mph - N/A   Clear
1:54 AM 16.0 °F - 10.9 °F 81% 30.55 in 8.0 mi Calm Calm - N/A   Clear
2:54 AM 19.0 °F 13.9 °F 12.9 °F 77% 30.54 in 10.0 mi ENE 3.5 mph - N/A   Clear
3:54 AM 19.0 °F 13.9 °F 12.9 °F 77% 30.53 in 10.0 mi NE 3.5 mph - N/A   Clear
4:54 AM 19.9 °F 12.1 °F 12.9 °F 74% 30.50 in 10.0 mi ENE 5.8 mph - N/A   Clear
5:54 AM 21.0 °F 10.6 °F 12.9 °F 71% 30.48 in 10.0 mi ENE 9.2 mph - N/A   Partly Cloudy
6:54 AM 21.9 °F 12.5 °F 12.9 °F 68% 30.48 in 10.0 mi NE 8.1 mph - N/A   Overcast
7:54 AM 21.9 °F 11.7 °F 14.0 °F 72% 30.43 in 10.0 mi ENE 9.2 mph 16.1 mph N/A   Overcast
8:54 AM 21.9 °F 14.5 °F 14.0 °F 72% 30.45 in 10.0 mi ENE 5.8 mph - N/A   Overcast
9:54 AM 23.0 °F 12.4 °F 15.1 °F 72% 30.43 in 10.0 mi ENE 10.4 mph 17.3 mph 0.00 in   Overcast
10:54 AM 24.1 °F 13.1 °F 16.0 °F 71% 30.39 in 10.0 mi ENE 11.5 mph - 0.00 in   Overcast
11:29 AM 24.8 °F 13.4 °F 17.6 °F 74% 30.35 in 2.0 mi ENE 12.7 mph - 0.00 in Snow Light Snow
11:36 AM 24.8 °F 14.6 °F 17.6 °F 74% 30.34 in 1.0 mi ENE 10.4 mph - 0.00 in Snow Light Snow
11:54 AM 24.1 °F 14.4 °F 19.0 °F 81% 30.36 in 0.8 mi ENE 9.2 mph - 0.00 in Snow Light Snow
12:27 PM 24.8 °F 14.6 °F 19.4 °F 80% 30.29 in 1.5 mi ENE 10.4 mph - 0.00 in Snow Light Snow
12:37 PM 24.8 °F 14.6 °F 19.4 °F 80% 30.27 in 2.5 mi ENE 10.4 mph - 0.00 in Snow Light Snow
12:44 PM 24.8 °F 16.1 °F 19.4 °F 80% 30.27 in 4.0 mi ENE 8.1 mph - 0.00 in Snow Light Snow
12:54 PM 25.0 °F 16.3 °F 19.9 °F 81% 30.31 in 6.0 mi ENE 8.1 mph - 0.00 in   Haze
1:17 PM 26.6 °F 19.1 °F 19.4 °F 74% 30.25 in 10.0 mi ENE 6.9 mph - 0.01 in   Overcast
1:32 PM 26.6 °F 17.5 °F 19.4 °F 74% 30.24 in 6.0 mi ENE 9.2 mph - 0.01 in Snow Light Snow
1:54 PM 26.1 °F 17.6 °F 21.0 °F 81% 30.28 in 5.0 mi NE 8.1 mph - 0.01 in   Haze
2:54 PM 26.1 °F 15.6 °F 21.0 °F 81% 30.23 in 4.0 mi East 11.5 mph - 0.00 in   Overcast
3:54 PM 27.0 °F 17.3 °F 21.9 °F 81% 30.20 in 10.0 mi ENE 10.4 mph - 0.00 in   Overcast
4:00 PM 26.6 °F 17.5 °F 21.2 °F 80% 30.16 in 9.0 mi ENE 9.2 mph - N/A   Overcast
4:09 PM 26.6 °F 17.5 °F 23.0 °F 86% 30.16 in 7.0 mi East 9.2 mph - N/A   Overcast
4:54 PM 28.0 °F 18.6 °F 23.0 °F 81% 30.19 in 8.0 mi ENE 10.4 mph - N/A   Overcast
5:54 PM 28.0 °F 20.8 °F 24.1 °F 85% 30.16 in 4.0 mi ENE 6.9 mph - N/A   Overcast
6:54 PM 28.0 °F 24.2 °F 25.0 °F 88% 30.13 in 6.0 mi NE 3.5 mph - N/A   Overcast
7:52 PM 28.4 °F - 26.6 °F 93% 30.10 in 2.0 mi Calm Calm - N/A   Overcast
7:54 PM 28.9 °F 23.9 °F 26.1 °F 89% 30.13 in 1.8 mi ENE 4.6 mph - N/A   Overcast
8:18 PM 28.4 °F 21.2 °F 26.6 °F 93% 30.08 in 2.0 mi East 6.9 mph - N/A   Overcast
8:54 PM 28.9 °F 23.9 °F 27.0 °F 92% 30.09 in 2.5 mi East 4.6 mph - N/A   Overcast
9:01 PM 28.4 °F 23.3 °F 26.6 °F 93% 30.06 in 3.0 mi East 4.6 mph - N/A   Overcast
9:14 PM 28.4 °F 24.6 °F 26.6 °F 93% 30.05 in 2.5 mi ESE 3.5 mph - N/A   Overcast
9:23 PM 30.2 °F 25.4 °F 26.6 °F 86% 30.04 in 3.0 mi ESE 4.6 mph - N/A   Overcast
9:30 PM 30.2 °F 25.4 °F 28.4 °F 93% 30.04 in 2.5 mi ESE 4.6 mph - N/A   Overcast
9:54 PM 30.0 °F 26.5 °F 28.0 °F 92% 30.07 in 2.0 mi ESE 3.5 mph - N/A   Overcast
10:17 PM 30.2 °F - 28.4 °F 93% 30.03 in 1.8 mi Calm Calm - N/A   Overcast
10:38 PM 30.2 °F 26.7 °F 28.4 °F 93% 30.02 in 2.0 mi SE 3.5 mph - N/A   Overcast
10:54 PM 30.9 °F - 28.9 °F 92% 30.05 in 2.0 mi Calm Calm - N/A   Overcast
11:28 PM 30.2 °F - 28.4 °F 93% 30.00 in 1.5 mi Calm Calm - N/A   Overcast
11:50 PM 30.2 °F - 30.2 °F 100% 30.00 in 2.5 mi Calm Calm - N/A   Overcast
11:54 PM 30.9 °F - 30.0 °F 96% 30.02 in 2.5 mi Calm Calm - N/A   Overcast